Location: ????????
(55.6189°N, 38.3031°E)
Time: 08:08:52
(UTC+00:00)

Okean O Rocket - Pass Details

Date: 15 November 2019
Orbit: 622 x 645 km, 98.2° (Epoch: 12 December)

Event Time Altitude Azimuth Distance (km) Brightness Sun altitude
Rises 03:16:23 0° 16° (NNE) 2,924 5.1 -14.4°
Reaches altitude 10° 03:18:36 10° 17° (NNE) 2,010 4.2 -14.1°
Maximum altitude 03:22:59 82° 106° (ESE) 637 1.7 -13.5°
Drops below altitude 10° 03:27:19 10° 194° (SSW) 1,992 4.2 -12.9°
Sets 03:29:30 0° 195° (SSW) 2,895 5.0 -12.6°
